Date String (YYYY-MM-DD hh:mm:ss) UTC,Instrument flags,absolute air pressure of the measurement (hPa),sample flow rate (lpm),inlet stack bypass flow (lpm),air temperature of the measurement (°C),ambient temperature measured by the external sensor (°C),aerosol sample conditioner tube jacket temperature (°C),OPC LED temperature (°C),internal box temperature (°C),relative humidity of the measurement (%),span deviation,mass concentration of particles derived from Lorenz-Mie calculation of OPC scattering (μg/m³),mass concentration of particles derived from Lorenz-Mie calculation of OPC scattering (μg/m³),mass concentration of particles derived from Lorenz-Mie calculation of OPC scattering (μg/m³)
DateTimeUTC,F1_M11,P_M11,Q1_M11,Q2_M11,T1_M11,T2_M11,T3_M11,T4_M11,T5_M11,U1_M11,ZSPAN_M11,X0_M11,X2_M11,X1_M11
2023-10-31 03:00:00,SystemResetWarning,0836.8,5.00,000.00,023.4,022.1,000.0,031.9,024.8,5.6,0000.1,0006.41,0004.17,0003.92
2023-10-31 03:01:00,SystemResetWarning,0836.8,4.99,000.00,023.4,022.1,000.0,031.9,024.8,5.3,0000.0,0006.65,0004.24,0003.96
2023-10-31 03:02:00,SystemResetWarning,0836.8,5.00,000.00,023.4,022.1,000.0,031.9,024.8,5.5,0000.0,0006.80,0004.29,0004.00
2023-10-31 03:03:00,SystemResetWarning,0836.8,5.00,000.00,023.4,022.1,000.0,031.9,024.8,5.6,0000.0,0006.81,0004.31,0004.03
2023-10-31 03:04:00,SystemResetWarning,0836.8,5.00,000.00,023.4,022.2,000.0,031.9,024.8,5.5,0000.0,0006.90,0004.32,0004.04
2023-10-31 03:05:00,SystemResetWarning,0836.8,5.00,000.00,023.4,022.2,000.0,031.9,024.7,5.4,0000.0,0007.01,0004.37,0004.09
2023-10-31 03:06:00,SystemResetWarning,0836.8,5.00,000.00,023.4,022.2,000.0,031.9,024.7,5.4,0000.0,0007.13,0004.42,0004.15
2023-10-31 03:07:00,SystemResetWarning,0836.8,5.00,000.00,023.4,022.1,000.0,031.9,024.8,5.4,0000.0,0007.41,0004.54,0004.25
2023-10-31 03:08:00,SystemResetWarning,0836.8,5.00,000.00,023.4,022.1,000.0,031.8,024.8,5.4,0000.4,0007.51,0004.66,0004.38
2023-10-31 03:09:00,SystemResetWarning,0836.8,5.00,000.00,023.4,022.1,000.0,031.8,024.8,5.3,0003.0,0007.74,0004.83,0004.54
2023-10-31 03:10:00,SystemResetWarning,0836.8,5.00,000.00,023.3,022.1,000.0,031.8,024.8,5.3,0000.6,0008.01,0004.99,0004.69
2023-10-31 03:11:00,SystemResetWarning,0836.8,5.00,000.00,023.3,022.1,000.0,031.8,024.7,5.4,-000.3,0008.60,0005.13,0004.84
2023-10-31 03:12:00,SystemResetWarning,0836.8,5.00,000.00,023.3,022.1,000.0,031.8,024.7,5.4,-000.1,0008.78,0005.31,0005.01
2023-10-31 03:13:00,SystemResetWarning,0836.8,5.00,000.00,023.3,022.1,000.0,031.8,024.7,5.5,-001.1,0009.04,0005.47,0005.19
2023-10-31 03:14:00,SystemResetWarning,0836.9,4.99,000.00,023.3,022.1,000.0,031.8,024.8,5.5,-001.1,0010.08,0005.63,0005.35
2023-10-31 03:15:00,SystemResetWarning,0836.8,5.00,000.00,023.3,022.0,000.0,031.8,024.8,5.7,-001.3,0010.26,0005.79,0005.50
2023-10-31 03:16:00,SystemResetWarning,0836.8,5.00,000.00,023.3,022.0,000.0,031.8,024.7,5.9,-001.9,0010.60,0005.92,0005.61
2023-10-31 03:17:00,SystemResetWarning,0836.8,5.00,000.00,023.3,022.0,000.0,031.8,024.7,5.9,-002.2,0011.49,0005.96,0005.63
2023-10-31 03:18:00,SystemResetWarning,0836.8,5.00,000.00,023.3,022.0,000.0,031.8,024.7,5.9,-002.0,0011.40,0005.86,0005.55
2023-10-31 03:19:00,SystemResetWarning,0836.9,5.01,000.00,023.3,022.0,000.0,031.8,024.6,6.0,-001.9,0011.15,0005.71,0005.42
2023-10-31 03:20:00,SystemResetWarning,0836.9,5.01,000.00,023.3,022.0,000.0,031.7,024.7,6.1,-001.6,0011.06,0005.60,0005.30
2023-10-31 03:21:00,SystemResetWarning,0836.9,5.01,000.00,023.3,022.0,000.0,031.7,024.7,6.4,-000.5,0011.57,0005.50,0005.21
2023-10-31 03:22:00,SystemResetWarning,0836.9,5.01,000.00,023.3,022.0,000.0,031.7,024.7,6.3,0000.2,0011.08,0005.43,0005.14
2023-10-31 03:23:00,SystemResetWarning,0836.9,5.00,000.00,023.3,022.0,000.0,031.7,024.7,6.2,0000.3,0011.01,0005.29,0005.00
2023-10-31 03:24:00,SystemResetWarning,0836.9,4.99,000.00,023.2,022.0,000.0,031.7,024.7,6.2,0000.9,0010.82,0005.14,0004.86
2023-10-31 03:25:00,SystemResetWarning,0836.9,5.00,000.00,023.2,021.9,000.0,031.7,024.6,6.1,0001.1,0009.79,0005.01,0004.73
2023-10-31 03:26:00,SystemResetWarning,0836.9,5.00,000.00,023.2,021.9,000.0,031.7,024.6,6.0,0001.7,0009.57,0004.87,0004.60
2023-10-31 03:27:00,SystemResetWarning,0836.9,5.00,000.00,023.2,022.0,000.0,031.7,024.6,6.0,0002.0,0009.43,0004.75,0004.47
2023-10-31 03:28:00,SystemResetWarning,0836.9,5.00,000.00,023.2,022.0,000.0,031.7,024.6,6.0,0001.7,0008.37,0004.67,0004.41
2023-10-31 03:29:00,SystemResetWarning,0837.0,5.00,000.00,023.2,021.9,000.0,031.7,024.6,6.0,0002.3,0008.26,0004.70,0004.43
2023-10-31 03:30:00,SystemResetWarning,0837.0,5.00,000.00,023.2,021.9,000.0,031.7,024.6,6.0,0002.3,0008.44,0004.78,0004.49
2023-10-31 03:31:00,SystemResetWarning,0837.0,5.00,000.00,023.2,022.0,000.0,031.7,024.6,5.9,0001.6,0008.58,0004.87,0004.56
2023-10-31 03:32:00,SystemResetWarning,0837.0,5.00,000.00,023.2,021.9,000.0,031.6,024.6,5.9,-000.2,0008.05,0004.89,0004.57
2023-10-31 03:33:00,SystemResetWarning,0836.9,5.00,000.00,023.2,021.9,000.0,031.6,024.6,6.0,-000.5,0007.96,0004.83,0004.51
2023-10-31 03:34:00,SystemResetWarning,0836.9,5.00,000.00,023.2,021.9,000.0,031.6,024.6,6.1,-000.7,0007.64,0004.77,0004.46
2023-10-31 03:35:00,SystemResetWarning,0837.0,5.00,000.00,023.2,021.9,000.0,031.6,024.5,6.2,-000.3,0007.59,0004.71,0004.38
2023-10-31 03:36:00,SystemResetWarning,0837.0,5.00,000.00,023.1,021.8,000.0,031.6,024.5,6.1,-001.6,0007.56,0004.63,0004.28
2023-10-31 03:37:00,SystemResetWarning,0837.0,5.00,000.00,023.1,021.8,000.0,031.6,024.5,6.0,-002.0,0007.45,0004.53,0004.20
2023-10-31 03:38:00,SystemResetWarning,0837.0,5.00,000.00,023.1,021.8,000.0,031.6,024.5,6.1,-002.0,0007.31,0004.45,0004.14
2023-10-31 03:39:00,SystemResetWarning,0837.0,5.00,000.00,023.1,021.8,000.0,031.6,024.5,6.2,-001.6,0007.17,0004.38,0004.07
2023-10-31 03:40:00,SystemResetWarning,0837.0,5.00,000.00,023.1,021.8,000.0,031.6,024.5,6.2,-002.5,0007.08,0004.28,0003.97
2023-10-31 03:41:00,SystemResetWarning,0837.0,5.00,000.00,023.1,021.8,000.0,031.6,024.4,6.3,-001.3,0006.67,0004.15,0003.86
2023-10-31 03:42:00,SystemResetWarning,0837.0,5.00,000.00,023.1,021.8,000.0,031.5,024.4,6.3,0000.0,0006.29,0004.01,0003.73
2023-10-31 03:43:00,SystemResetWarning,0837.0,5.00,000.00,023.1,021.7,000.0,031.5,024.4,6.3,0000.0,0005.95,0003.91,0003.63
2023-10-31 03:44:00,SystemResetWarning,0837.0,5.00,000.00,023.1,021.7,000.0,031.5,024.4,6.3,0000.0,0005.95,0003.89,0003.60
2023-10-31 03:45:00,SystemResetWarning,0837.0,5.00,000.00,023.0,021.7,000.0,031.5,024.4,6.4,0000.0,0005.92,0003.87,0003.57
2023-10-31 03:46:00,SystemResetWarning,0836.9,5.00,000.00,023.0,021.7,000.0,031.5,024.3,6.4,0000.0,0006.24,0003.84,0003.56
2023-10-31 03:47:00,SystemResetWarning,0836.9,5.00,000.00,023.0,021.6,000.0,031.5,024.3,6.4,0000.0,0007.09,0003.82,0003.56
2023-10-31 03:48:00,SystemResetWarning,0837.0,5.00,000.00,023.0,021.6,000.0,031.5,024.3,6.5,0000.0,0007.11,0003.83,0003.58
2023-10-31 03:49:00,SystemResetWarning,0837.0,5.00,000.00,023.0,021.6,000.0,031.5,024.3,6.5,0000.0,0007.25,0003.87,0003.59
2023-10-31 03:50:00,SystemResetWarning,0837.1,5.00,000.00,022.9,021.6,000.0,031.5,024.3,6.6,0000.0,0007.32,0003.88,0003.59
2023-10-31 03:51:00,SystemResetWarning,0837.0,5.00,000.00,022.9,021.6,000.0,031.4,024.3,6.6,0000.0,0007.26,0003.88,0003.60
2023-10-31 03:52:00,SystemResetWarning,0837.0,5.00,000.00,022.9,021.5,000.0,031.4,024.2,6.7,0000.0,0007.15,0003.88,0003.61
2023-10-31 03:53:00,SystemResetWarning,0837.0,5.01,000.00,022.9,021.5,000.0,031.4,024.2,6.7,0000.0,0007.15,0003.88,0003.61
2023-10-31 03:54:00,SystemResetWarning,0836.9,5.00,000.00,022.9,021.5,000.0,031.4,024.2,6.6,0000.0,0006.99,0003.85,0003.60
2023-10-31 03:55:00,SystemResetWarning,0837.0,4.99,000.00,022.9,021.5,000.0,031.4,024.2,6.7,0000.0,0006.94,0003.86,0003.62
2023-10-31 03:56:00,SystemResetWarning,0837.0,4.99,000.00,022.8,021.4,000.0,031.4,024.1,6.8,0000.0,0006.94,0003.87,0003.63
2023-10-31 03:57:00,SystemResetWarning,0837.1,4.99,000.00,022.8,021.4,000.0,031.3,024.1,7.0,0000.0,0006.95,0003.87,0003.64
2023-10-31 03:58:00,SystemResetWarning,0837.1,4.99,000.00,022.8,021.4,000.0,031.3,024.1,7.0,0000.0,0005.62,0003.88,0003.64
2023-10-31 03:59:00,SystemResetWarning,0837.1,5.00,000.00,022.8,021.4,000.0,031.3,024.1,7.1,0000.0,0005.56,0003.88,0003.63
